Content
SEND FEEDBACK

Daily
Averages
Monthly
Summary
United States of America

TOKELAND, WASHINGTON


Home > North America > United States > Washington
Elevation: 2 feet     Latitude: 46 46N     Longitude: 124 05W

WEATHER
 
SELECT A DAY
Number of Records: 206,241;   Date Range: 7/1/96 - 9/22/14
 
SHARE

PRINT THIS DATA

[ ← Previous Day ]
WEATHER ALMANAC - JANUARY 23, 2013
[ Next Day → ]
[ °C ]   °F
Weather ElementAverageHighLow
Temperature42.1 °F46.4 °F (2:10 pm)37 °F (3:53 am)
Dewpoint40.5 °F44.6 °F (1:47 pm)33.8 °F (1:24 am)
Humidity93.9 %100 % (12:46 pm)81 % (1:24 am)
Barometer29.94 in30.17 in (11:53 pm)29.84 in (8:16 am)
Wind Speed7.7 mph19.6 mph (2:03 pm)
Wind Gust26.5 mph (2:03 pm)
Weather ElementAverage
Visibility6.4 mi
Wind DirectionSE (139 °)

Weather ElementTotal
Precipitation1.10 in
Heating Degree Days23.3 (Base 65)
Averaged from 42 records on January 23, 2013
WEATHER CONDITIONS BREAKOUT
WIND DIRECTION BREAKOUT
WEATHER BY HOUR - JANUARY 23, 2013
[ °C ]   °F
Local TimeTemperatureDewpointHumidityBarometerVisibilityWind DirectionWind SpeedGust SpeedPrecipitationEventsConditions
1:24 AM39.2 °F33.8 °F81 %29.91 in10.0 miENE (60°)9.2 mphOvercast
1:53 AM39.0 °F34.0 °F82 %29.93 in9.0 miENE (70°)11.5 mph0.00 inRainLight Rain
2:53 AM41.0 °F37.9 °F89 %29.92 in6.0 miNE (40°)6.9 mph0.03 inRainLight Rain
3:53 AM37.0 °F36.0 °F96 %29.90 in8.0 miENE (60°)13.8 mph0.04 inRainLight Rain
4:53 AM37.0 °F36.0 °F96 %29.88 in7.0 miENE (70°)10.4 mph0.01 inRainLight Rain
5:53 AM39.0 °F37.0 °F93 %29.88 in9.0 miENE (60°)9.2 mph0.02 inRainLight Rain
6:53 AM39.0 °F37.9 °F96 %29.88 in8.0 miENE (60°)8.1 mph0.02 inRainLight Rain
7:53 AM39.9 °F37.9 °F93 %29.85 in10.0 miENE (60°)11.5 mph0.00 inOvercast
8:16 AM39.2 °F37.4 °F93 %29.84 in10.0 miENE (60°)8.1 mph0.01 inRainLight Rain
8:45 AM39.2 °F37.4 °F93 %29.84 in4.0 miENE (70°)9.2 mph0.03 inRainLight Rain
8:53 AM39.0 °F37.9 °F96 %29.85 in4.0 miENE (60°)10.4 mph0.03 inRainLight Rain
9:53 AM39.0 °F37.0 °F93 %29.86 in7.0 miENE (60°)9.2 mph0.05 inRainLight Rain
10:53 AM41.0 °F39.0 °F93 %29.86 in6.0 miENE (60°)8.1 mph0.03 inRainLight Rain
11:53 AM42.1 °F41.0 °F96 %29.86 in4.0 miNE (50°)8.1 mph0.04 inRainLight Rain
12:18 PM42.8 °F41.0 °F93 %29.84 in2.5 miENE (60°)4.6 mph0.04 inRainLight Rain
12:46 PM42.8 °F42.8 °F100 %29.84 in2.5 miENE (60°)4.6 mph0.09 inRainLight Rain
12:53 PM43.0 °F42.1 °F97 %29.85 in3.0 miCalm0.10 inRainLight Rain
1:47 PM44.6 °F44.6 °F100 %29.85 in4.0 miWSW (250°)8.1 mph0.08 inRainLight Rain
1:48 PM44.6 °F44.6 °F100 %29.85 in4.0 miWSW (250°)9.2 mph0.08 inRainLight Rain
1:53 PM46.0 °F44.1 °F93 %29.87 in5.0 miWSW (250°)10.4 mph0.09 inRainLight Rain
2:03 PM44.6 °F42.8 °F93 %29.86 in6.0 miWest (260°)19.6 mph26.5 mph0.01 inRainLight Rain
2:10 PM46.4 °F42.8 °F87 %29.87 in6.0 miWest (270°)16.1 mph26.5 mph0.01 inRainLight Rain
2:53 PM46.0 °F43.0 °F89 %29.90 in6.0 miWest (270°)11.5 mph0.05 inRainLight Rain
3:53 PM45.0 °F42.1 °F90 %29.94 in10.0 miWSW (250°)4.6 mph0.06 inRainLight Rain
4:53 PM44.1 °F43.0 °F96 %29.96 in10.0 miSSE (160°)5.8 mph0.00 inOvercast
5:08 PM44.6 °F42.8 °F93 %29.95 in10.0 miSSE (160°)5.8 mphOvercast
5:19 PM44.6 °F42.8 °F93 %29.96 in10.0 miSouth (170°)6.9 mphOvercast
5:46 PM44.6 °F42.8 °F93 %29.98 in3.0 miSW (220°)5.8 mph0.02 inRainLight Rain
5:51 PM44.6 °F42.8 °F93 %29.98 in2.5 miWSW (250°)6.9 mph0.04 inRainLight Rain
5:53 PM44.1 °F44.1 °F100 %29.99 in2.0 miSW (230°)6.9 mph0.06 inRainRain
5:57 PM44.6 °F44.6 °F100 %29.97 in1.8 miSSW (210°)8.1 mph0.01 inRainRain
6:03 PM44.6 °F44.6 °F100 %29.98 in3.0 miSW (220°)6.9 mph0.01 inRainLight Rain
6:11 PM44.6 °F42.8 °F93 %29.98 in3.0 miSW (220°)8.1 mph0.02 inRainLight Rain
6:22 PM44.6 °F42.8 °F93 %29.99 in9.0 miSW (220°)8.1 mph0.02 inOvercast
6:53 PM44.6 °F42.8 °F93 %30.01 in10.0 miWest (260°)10.4 mphOvercast
7:37 PM44.6 °F42.8 °F93 %30.04 in10.0 miWest (260°)11.5 mph0.00 inOvercast
7:53 PM45.0 °F42.1 °F90 %30.06 in10.0 miWest (260°)6.9 mph0.00 inOvercast
8:53 PM41.0 °F39.9 °F96 %30.09 in10.0 miWSW (240°)3.5 mphPartly Cloudy
9:53 PM39.9 °F39.0 °F97 %30.13 in6.0 miCalmScattered Clouds
10:53 PM37.9 °F36.0 °F93 %30.15 in5.0 miCalmClear
11:46 PM37.4 °F37.4 °F100 %30.16 in7.0 miCalmMostly Cloudy
11:53 PM37.9 °F37.0 °F97 %30.17 in7.0 miCalmMostly Cloudy
Hourly data recorded from KHQM, located miles away from Tokeland, Washington







STORIES FROM OUR PARTNERS